GFSSGP_con_3kmhel_132.txt.gz
Helicity
1 13 9 9 22 25 131 144 77 56 47 29 30 23 37 21 48 78 31 36 -2 30 88 93 105 116 117 113 131 127 106 74 56 80 110 120 114 119 135 125 121 120 125 122 92 75 71 69 61
14 9 9 17 32 64 175 95 141 78 29 29 29 25 16 32 24 20 10 24 7 3 54 71 98 123 129 124 129 132 126 103 87 86 108 115 112 105 113 120 113 113 114 129 90 68 71 65 63
7 3 15 36 62 113 190 138 121 77 103 63 34 29 43 54 46 27 18 22 21 23 39 82 90 106 119 123 123 121 127 118 109 108 116 119 121 116 106 107 106 102 102 101 87 81 76 64 61
11 20 33 42 138 138 158 96 96 72 82 115 57 76 45 37 35 30 19 31 36 31 25 76 77 95 110 119 119 122 115 105 107 114 123 119 125 122 104 85 91 94 95 85 70 74 92 68 68
13 20 45 75 115 107 94 59 82 91 92 109 124 121 110 50 32 48 45 41 47 40 27 33 65 80 84 89 93 94 90 90 94 102 113 122 122 121 112 89 73 79 93 76 57 76 82 69 59
16 20 36 76 118 86 76 54 54 90 104 150 142 125 159 58 85 67 55 65 50 40 25 16 32 47 67 79 81 79 78 78 78 83 93 112 116 117 114 107 81 69 82 80 57 56 54 47 54
1 26 49 76 102 74 97 53 91 99 95 161 140 147 114 138 132 106 89 70 47 44 34 28 21 34 45 56 69 71 72 71 70 76 82 83 96 105 107 109 96 78 67 71 62 59 47 36 39
34 42 53 62 80 156 107 68 62 94 96 112 94 124 126 149 130 105 95 88 71 53 45 33 32 34 39 40 53 65 77 82 88 88 92 89 97 93 96 101 101 90 79 73 72 61 51 42 28
38 42 50 83 64 149 93 84 34 39 45 99 86 123 142 132 123 131 126 81 94 80 65 43 34 40 41 40 57 58 53 64 85 95 98 102 84 83 88 100 122 97 96 72 80 65 75 70 47
37 33 97 104 104 100 79 66 45 61 84 34 97 132 146 154 155 146 142 112 89 83 96 84 71 54 50 51 53 50 50 48 54 69 91 94 89 90 91 111 132 118 90 89 92 84 88 92 44
48 45 77 78 76 77 54 39 41 54 57 107 100 127 167 173 194 187 180 161 144 138 138 193 150 124 107 90 76 69 84 75 72 58 72 83 116 106 107 111 119 120 108 107 105 101 86 68 59
50 46 53 72 55 39 36 42 39 60 85 80 104 139 155 180 194 209 208 194 195 239 283 272 270 199 159 127 99 114 91 96 102 88 67 91 117 116 114 118 122 134 127 121 109 102 76 66 59
50 56 43 45 32 24 33 27 43 79 144 129 149 157 147 167 158 143 170 171 158 212 246 260 252 253 243 124 119 95 83 89 103 87 83 80 86 89 131 166 148 140 122 113 105 108 86 69 69
109 60 37 39 35 44 39 64 65 112 164 153 167 204 196 200 195 173 187 182 179 168 196 218 246 238 212 195 211 187 137 104 112 159 148 97 83 85 108 129 128 131 126 118 117 101 98 97 80
86 65 50 63 73 84 72 39 69 164 129 122 176 198 189 183 166 182 166 170 179 162 168 196 223 237 223 221 210 193 189 179 187 184 198 207 200 193 91 59 78 81 117 113 117 108 129 110 170
62 66 85 121 82 116 73 127 79 132 146 165 167 179 147 172 178 179 185 192 197 204 211 193 184 205 223 234 205 218 222 157 152 154 157 194 184 164 142 127 97 69 78 98 156 102 169 204 267
65 121 119 108 117 129 110 175 167 144 125 173 184 128 101 93 126 152 167 172 177 185 189 202 201 205 183 162 148 159 183 179 169 149 154 188 176 176 145 106 87 105 105 66 92 112 139 201 278
211 97 63 100 126 108 105 89 101 99 119 137 150 149 117 104 120 123 127 135 146 140 129 131 144 190 177 162 154 145 153 129 126 120 107 116 122 139 133 111 111 103 93 105 91 68 95 154 207
134 126 127 108 96 110 92 124 128 111 97 103 135 143 140 137 77 61 63 75 92 120 134 141 131 125 101 111 150 129 150 142 140 141 131 118 109 98 113 105 99 100 91 93 96 107 105 85 113
108 109 95 94 113 124 105 106 57 137 144 142 145 124 109 104 83 64 59 71 92 116 134 142 150 143 122 97 92 88 108 97 93 122 133 128 128 135 143 132 123 117 108 100 97 106 116 121 118
91 123 96 138 158 71 85 30 176 86 108 76 114 126 112 94 88 74 87 94 98 122 148 151 143 140 135 134 87 84 55 76 97 109 111 150 154 146 138 139 134 149 159 139 126 123 127 118 147
123 106 102 105 106 103 122 111 56 93 49 58 100 69 60 68 67 75 80 89 97 85 72 85 80 95 114 122 106 125 106 105 115 105 110 100 119 135 141 145 162 162 152 146 137 150 166 162 112
112 97 86 86 75 87 60 89 92 157 10 51 50 41 46 60 70 87 84 69 69 49 45 22 16 16 31 62 70 74 89 84 82 83 110 103 91 102 122 144 139 169 183 191 165 150 187 206 174
99 59 56 79 86 118 64 100 109 101 -14 28 42 40 64 81 85 92 90 77 66 65 89 60 42 24 16 9 2 -13 -4 21 47 77 59 96 123 135 130 121 118 148 156 174 165 151 161 176 194
48 90 156 170 149 143 223 156 107 158 62 48 49 42 67 92 102 113 95 85 94 93 88 67 60 49 36 35 34 38 45 38 18 4 14 53 68 100 138 149 106 105 111 127 123 121 147 166 179
48 68 184 215 186 171 72 139 180 142 97 62 54 62 90 112 126 118 105 116 112 94 96 86 61 36 31 19 21 34 31 24 44 38 17 36 80 58 67 103 108 89 78 79 88 100 112 106 141
109 112 65 112 98 141 123 90 157 130 87 73 62 74 98 152 130 123 125 158 116 87 84 66 53 49 20 -3 -4 10 13 29 41 49 53 77 84 82 113 102 106 93 63 69 58 74 116 131 146
110 112 108 103 129 123 95 81 93 87 32 49 37 61 81 145 142 146 154 157 130 99 70 62 58 35 5 -5 -16 -22 -10 -7 5 31 51 77 88 93 104 130 119 131 120 117 130 129 151 141 129
101 82 95 101 118 103 81 94 154 122 99 93 50 48 78 180 165 180 172 145 144 93 71 73 49 32 34 37 34 15 2 7 19 44 55 63 59 57 64 74 82 93 117 133 138 163 169 158 151
97 65 69 106 99 146 129 37 116 108 100 106 122 98 139 245 191 228 182 151 134 107 84 71 50 55 57 60 63 57 41 28 32 64 82 77 61 30 28 48 77 102 116 113 129 139 132 143 141

GFSSGP_con_3kmhel_135.txt.gz
Helicity
-8 30 1 -11 -6 3 23 89 63 24 20 76 51 92 79 111 108 114 66 73 36 31 55 56 34 45 77 100 101 96 96 86 78 67 45 46 66 84 100 98 95 93 89 79 75 67 59 55 52
-31 -12 7 -23 -11 -9 118 144 129 75 67 47 38 26 2 77 90 95 48 51 23 4 60 36 43 41 74 92 100 95 96 93 85 81 57 56 59 63 75 89 92 78 83 82 69 58 45 58 54
-4 -10 -32 12 1 0 114 163 114 73 45 44 38 34 63 82 101 71 47 43 35 36 37 85 58 44 67 80 84 87 88 95 98 95 76 75 75 71 62 66 83 76 54 86 58 41 36 42 48
-6 18 11 -4 -28 105 79 111 65 36 52 50 29 71 56 64 54 46 37 47 45 45 55 75 72 55 65 71 78 80 79 83 95 103 90 87 91 87 78 63 63 66 60 65 51 37 33 34 30
7 -18 -25 10 45 91 70 113 66 71 81 63 24 76 102 79 45 66 57 58 65 55 60 45 56 47 49 59 67 69 74 79 78 80 82 85 91 97 90 79 60 46 49 54 44 35 37 24 19
-11 -2 -26 -22 94 105 41 78 64 76 49 98 87 70 114 93 119 101 84 93 101 93 54 64 54 53 52 56 60 71 77 81 82 81 78 83 90 90 90 87 79 54 45 49 41 44 51 34 20
-13 -17 -24 16 41 69 116 34 69 67 42 116 72 33 50 99 112 96 81 116 122 97 70 46 42 51 63 59 61 56 60 70 81 86 84 85 85 78 91 88 78 69 63 63 54 46 44 42 29
4 4 -25 8 13 50 196 74 59 56 104 72 93 61 81 170 94 91 63 64 73 73 67 63 45 37 45 44 51 55 57 61 71 79 90 98 94 93 101 90 86 59 62 60 62 61 49 43 41
10 7 0 15 63 129 116 53 72 69 59 77 88 128 162 112 87 106 89 58 54 45 56 75 72 65 53 48 76 64 58 64 66 68 77 88 83 83 90 103 103 99 91 67 65 69 72 50 42
17 15 40 162 193 163 62 43 77 39 47 49 96 136 106 134 143 155 167 165 141 144 161 176 131 112 86 61 87 61 63 47 49 46 51 65 65 68 71 89 136 134 122 95 84 81 90 85 39
49 20 109 71 137 73 65 24 57 40 49 99 109 101 118 118 134 152 173 227 239 237 354 312 339 283 165 106 76 62 61 104 99 73 61 50 52 53 95 115 158 132 147 132 120 106 101 83 64
50 62 72 108 56 44 40 44 25 47 78 131 110 152 142 110 125 163 172 174 181 182 197 225 261 283 322 241 231 211 197 141 124 110 104 93 77 71 68 76 123 129 112 144 147 145 120 84 62
34 65 65 59 45 23 39 34 29 44 104 71 118 111 137 154 145 109 140 148 156 180 185 191 176 225 249 254 259 290 204 151 148 140 155 135 118 89 74 74 80 106 127 136 141 143 135 108 76
122 80 48 42 38 37 40 44 75 52 162 95 85 156 132 179 178 159 140 130 130 134 168 192 203 201 214 203 194 205 197 191 181 178 195 214 181 160 136 95 78 83 98 108 130 153 156 123 103
46 43 36 51 51 75 75 47 91 80 129 59 60 155 133 144 152 172 175 176 180 164 144 181 176 213 216 186 162 144 157 156 162 153 172 184 176 177 160 137 116 99 90 87 87 88 136 125 94
42 42 51 132 139 121 77 118 141 157 98 91 86 191 209 163 177 173 177 183 188 189 157 132 167 169 192 194 161 141 132 112 109 123 108 152 139 139 134 121 89 67 76 132 84 91 68 45 69
56 62 78 120 91 154 93 144 135 57 101 106 92 141 243 149 133 148 154 162 157 154 148 135 125 160 169 168 149 140 160 153 159 155 151 167 137 155 142 126 118 105 60 83 108 69 66 75 84
99 80 64 114 109 93 105 96 83 75 138 124 145 201 219 154 143 156 159 149 156 139 120 107 97 123 107 119 113 96 106 122 139 150 137 147 125 132 152 137 112 97 105 76 111 109 126 86 74
136 105 127 96 70 147 121 84 84 116 119 108 107 207 200 150 137 126 125 138 139 145 143 137 121 117 108 97 123 139 139 111 102 81 99 116 109 95 102 109 112 101 99 106 74 67 89 91 102
78 80 90 91 76 206 118 80 91 87 107 175 170 239 188 137 107 94 94 108 107 102 110 125 137 137 126 103 93 101 99 93 70 76 66 84 106 94 87 84 92 123 119 114 91 97 77 83 97
64 78 105 145 153 156 69 51 19 108 238 122 154 194 145 122 118 79 78 62 58 86 93 105 110 124 109 109 80 82 75 99 119 107 81 84 83 93 84 97 103 109 112 130 147 121 124 85 87
88 128 244 118 118 138 148 148 92 87 169 112 114 125 131 117 109 113 79 84 86 80 69 76 79 89 89 89 87 89 91 101 85 67 80 89 86 106 108 117 112 112 104 106 134 170 190 154 93
147 268 120 130 109 113 92 133 89 91 209 108 85 72 84 76 78 97 93 97 89 92 81 83 79 85 72 48 46 49 62 54 66 86 93 72 89 85 91 97 116 133 137 135 109 135 158 168 138
104 75 51 35 48 132 73 55 109 65 127 89 84 63 78 77 102 120 104 84 109 99 108 108 96 88 71 51 41 45 52 53 62 70 57 69 78 77 107 139 113 115 135 170 165 148 121 107 137
61 73 188 201 158 136 75 154 118 75 129 130 114 101 89 78 91 114 101 118 125 130 134 110 101 95 71 50 35 34 40 58 70 90 72 71 74 88 89 104 99 95 139 139 128 126 156 138 108
78 74 167 245 202 125 71 155 87 135 101 116 91 87 93 70 183 110 144 131 131 145 144 110 90 71 57 42 19 13 26 28 43 58 71 72 63 78 91 82 114 130 127 126 131 116 94 107 91
72 131 44 104 142 150 119 42 56 236 245 216 95 109 109 115 171 156 164 159 168 165 142 108 83 70 55 33 5 3 1 12 23 30 39 53 58 71 88 85 109 121 120 118 125 95 100 109 114
65 42 155 123 168 102 55 35 36 210 141 150 88 74 126 201 157 190 171 168 196 178 139 115 87 77 57 25 20 25 37 35 28 25 39 62 60 63 66 74 82 87 92 105 103 95 91 64 77
44 68 66 65 107 139 89 68 77 79 27 39 72 83 94 214 154 168 234 205 207 168 155 125 106 96 74 53 55 78 93 77 59 42 45 64 65 54 40 43 60 72 66 62 82 87 84 79 97
40 26 20 83 86 79 112 72 52 46 70 42 44 81 115 196 201 212 253 207 193 171 142 124 105 83 66 58 64 102 103 82 79 69 48 38 39 20 10 -2 10 12 35 53 63 62 72 105 139

GFSSGP_con_3kmhel_138.txt.gz
Helicity
-29 68 89 17 -13 15 -38 93 140 52 38 134 83 78 81 118 133 126 44 68 28 50 68 59 61 64 69 62 53 53 50 52 54 58 51 32 14 14 30 43 45 42 45 43 29 25 31 34 35
-12 -43 -7 -26 -31 -87 52 69 122 191 88 77 18 6 110 184 76 85 51 35 22 47 55 51 62 55 62 64 63 58 60 58 61 61 60 53 40 28 29 35 44 45 46 47 38 31 25 35 37
26 3 -27 13 -21 -27 74 133 156 84 35 16 8 51 95 105 151 62 50 55 63 64 32 78 74 61 59 66 74 68 67 63 62 67 72 67 58 54 48 42 35 36 44 47 34 33 38 29 26
-2 6 19 -13 -81 88 136 106 85 32 30 1 -10 104 122 119 93 58 76 45 77 81 82 69 76 68 62 64 73 81 78 69 66 71 71 69 68 66 67 59 47 35 25 33 42 29 34 31 29
3 -15 -19 -14 -75 142 129 158 67 39 95 9 -19 143 137 83 74 52 49 100 60 70 41 43 48 51 53 55 60 72 80 80 76 79 81 81 79 77 77 71 59 47 33 22 44 31 39 39 30
4 -5 -11 -53 57 127 125 218 57 14 23 79 14 95 115 105 105 126 93 96 150 87 81 57 55 48 50 48 50 58 70 70 73 78 81 84 85 91 89 88 74 58 38 22 31 26 31 33 35
0 22 -25 -47 -30 93 149 160 45 42 9 145 94 21 85 126 84 91 44 48 59 67 91 39 33 50 51 43 41 43 52 63 70 73 76 80 80 83 92 105 102 82 69 45 49 37 35 36 35
18 13 -10 -40 -3 161 169 171 158 32 83 81 76 55 172 146 77 87 81 14 38 44 16 63 49 34 49 63 48 48 44 50 61 61 68 75 75 77 84 93 106 94 89 69 63 66 62 45 38
-7 16 10 -31 34 198 146 98 107 105 90 77 88 106 95 133 151 132 108 87 102 88 324 356 316 171 56 59 96 71 64 59 59 61 56 67 74 77 79 98 96 111 102 90 84 80 72 76 57
21 19 -9 89 111 133 114 89 61 74 18 51 43 126 112 132 175 204 229 283 356 334 347 355 315 282 256 81 131 66 54 67 46 46 65 76 62 66 58 90 114 126 122 106 108 93 97 102 94
2 17 10 64 90 208 165 147 31 74 73 95 196 221 182 145 155 158 207 234 275 235 205 239 238 297 298 241 199 158 102 112 128 134 129 97 75 70 55 54 119 124 119 141 152 146 147 141 127
47 10 21 66 60 65 90 95 103 71 61 87 148 259 215 156 128 172 196 161 139 165 198 202 186 229 234 244 228 239 337 275 212 204 195 144 108 91 75 68 65 79 89 85 101 183 174 169 138
32 18 29 52 80 41 47 47 53 51 80 108 178 176 181 198 213 154 143 142 126 138 138 168 136 178 205 176 180 209 271 246 212 227 194 164 125 100 102 101 80 80 92 95 86 100 135 185 178
62 70 49 49 47 40 51 45 54 48 99 126 103 190 158 157 147 182 150 126 150 146 147 162 163 174 190 159 167 178 164 178 157 142 143 145 128 111 86 82 97 96 121 92 85 89 99 118 132
41 35 20 25 46 34 73 81 35 57 185 162 70 238 299 136 174 186 176 170 163 128 123 191 186 196 194 214 182 113 119 124 116 94 101 112 118 126 108 107 95 48 42 71 74 56 43 61 19
35 27 30 5 88 216 144 69 39 117 224 135 80 182 221 324 212 190 192 203 195 201 170 155 180 196 206 223 155 123 102 74 76 87 118 186 144 166 141 147 156 128 79 60 85 92 36 9 71
46 29 32 37 158 170 114 79 70 117 101 121 108 88 233 339 332 201 188 182 190 172 170 151 165 203 174 200 224 171 191 163 107 96 97 147 171 180 162 179 149 144 154 178 75 110 96 111 49
61 58 21 1 87 118 99 80 51 8 35 81 107 62 269 320 429 195 195 188 193 160 139 125 124 151 149 156 167 164 164 136 128 73 76 101 122 131 148 143 149 141 147 165 152 130 119 62 72
80 100 105 121 -10 37 60 69 91 66 28 34 118 64 267 357 381 198 177 188 146 145 126 105 87 112 112 101 109 127 125 116 96 97 72 98 94 108 123 111 141 129 126 128 128 116 128 108 81
197 149 80 60 70 86 83 128 142 76 53 36 78 167 258 420 263 186 140 149 142 126 117 103 102 88 91 85 58 64 78 83 93 93 81 96 80 91 93 78 93 111 117 141 147 169 145 112 115
82 97 93 76 99 148 195 102 63 49 68 129 213 213 267 300 176 129 127 98 91 101 101 94 91 91 99 130 89 97 90 96 84 87 75 92 80 85 76 63 72 77 94 100 121 158 195 150 146
90 72 115 215 213 142 115 176 144 34 100 294 298 290 410 238 171 130 124 116 100 92 77 87 99 108 107 104 88 89 86 80 62 64 73 78 121 115 156 159 137 94 65 96 110 119 134 196 174
79 129 253 236 177 162 139 176 107 41 36 274 307 294 201 190 181 208 186 157 126 91 97 96 97 107 96 82 67 48 40 29 34 48 67 98 98 131 139 146 117 108 90 107 122 125 130 127 136
194 237 152 101 98 176 105 48 96 50 109 226 165 172 140 130 137 215 194 142 134 118 117 110 113 110 82 57 45 30 15 14 20 39 39 48 73 88 97 84 78 79 92 99 86 105 119 140 150
135 148 208 224 199 171 29 83 115 66 53 117 175 221 206 155 257 226 101 129 156 131 135 117 140 125 94 71 55 41 27 20 31 38 42 62 52 62 79 70 71 73 80 83 78 73 86 107 138
53 37 206 243 220 246 94 262 141 47 116 266 162 173 246 180 236 166 190 227 173 161 177 159 153 134 102 79 65 42 31 -1 8 39 52 53 52 57 70 66 84 95 96 93 64 53 78 115 139
122 169 59 159 152 222 155 83 49 40 106 182 177 171 226 227 295 206 229 244 211 197 199 190 158 127 100 83 56 49 37 36 44 68 60 47 44 55 62 63 81 90 85 89 76 70 88 95 98
120 88 208 203 298 240 157 103 103 170 217 216 177 171 226 219 311 226 207 235 247 229 198 173 158 140 122 100 79 55 55 67 88 92 79 55 39 32 30 39 60 56 70 85 84 88 104 103 100
29 53 48 82 146 236 198 146 110 159 126 70 87 120 109 270 406 260 218 193 251 250 181 150 161 153 135 106 83 70 79 88 98 95 74 60 41 31 26 10 10 3 37 2 24 36 46 69 90
79 88 118 192 184 160 135 71 -44 78 80 248 126 66 63 182 175 240 242 241 244 214 172 172 177 156 143 99 94 83 96 100 99 92 68 58 50 31 16 1 4 -1 -6 -14 -28 -14 -6 10 38

GFSSGP_con_3kmhel_141.txt.gz
Helicity
10 60 52 19 -42 -6 25 -3 127 264 153 96 24 129 99 -21 35 119 20 8 29 75 46 59 71 71 68 61 53 45 39 41 46 46 42 33 26 19 15 12 14 15 15 17 14 20 30 28 22
26 25 2 -7 32 153 23 63 114 100 64 23 129 203 210 -20 55 48 48 23 34 22 44 35 52 62 66 62 57 52 49 51 55 57 51 41 35 28 23 17 19 14 11 18 16 16 23 26 25
46 40 5 9 78 147 40 140 83 26 76 87 60 131 87 94 49 74 68 112 25 -4 24 27 52 60 65 68 64 60 54 54 59 66 68 57 50 44 38 30 24 23 17 15 17 20 30 23 26
41 20 4 23 39 -2 91 178 148 101 111 80 14 140 226 92 42 109 110 78 55 38 61 47 56 58 61 67 69 64 64 62 57 60 72 75 68 62 60 51 41 31 19 26 28 24 24 24 20
75 44 43 52 -6 40 127 142 208 166 144 103 105 174 215 164 160 126 123 59 16 20 19 40 54 61 62 62 60 59 58 56 61 60 67 69 71 74 75 69 64 53 41 16 26 44 34 27 23
54 62 68 128 31 71 154 110 172 170 99 121 81 115 118 114 201 76 57 51 9 19 10 10 56 72 70 63 59 60 54 55 49 46 49 58 67 74 76 79 79 68 57 46 26 38 46 44 33
97 140 35 38 -39 54 182 145 171 172 170 86 66 220 149 105 77 58 2 -21 34 30 54 26 22 42 61 62 68 66 56 53 48 46 38 34 45 57 72 80 83 73 69 62 53 44 48 43 47
69 70 1 0 55 64 137 224 175 206 165 69 94 175 242 168 140 121 128 282 302 302 302 297 194 153 111 49 50 62 62 55 48 47 48 48 37 49 54 65 72 73 68 75 73 67 61 64 54
44 71 20 111 58 59 122 113 83 96 163 176 96 115 157 181 217 287 333 395 343 341 336 285 232 201 199 123 83 60 38 48 44 51 52 57 64 49 46 62 73 74 70 67 76 80 87 86 80
87 90 130 21 62 178 115 78 92 118 116 97 199 206 237 258 267 274 275 296 336 322 281 257 249 215 206 235 248 190 98 125 118 93 80 87 84 84 63 57 58 79 86 96 86 99 107 121 142
51 68 48 29 7 110 174 186 100 156 256 184 313 297 276 223 231 230 234 215 168 147 163 179 197 241 203 209 207 284 295 174 169 182 202 178 141 149 118 73 53 64 68 95 91 66 107 148 170
89 22 2 23 -12 15 115 182 226 222 219 123 175 307 350 275 267 244 203 136 108 115 148 141 180 236 260 148 142 175 268 227 189 151 183 187 155 133 103 91 102 83 72 69 75 89 102 128 144
130 59 30 88 90 38 49 82 103 117 199 223 269 283 308 312 292 248 221 164 106 96 115 141 150 208 233 184 131 162 168 235 200 227 225 177 146 116 80 64 59 81 99 58 51 38 39 75 97
89 101 34 76 93 54 57 48 83 74 124 247 279 309 260 301 279 262 184 175 120 91 120 141 183 223 217 209 136 116 124 119 161 214 210 177 163 131 112 111 121 95 110 81 62 63 36 40 83
56 48 44 -13 25 69 60 53 66 44 173 249 287 361 351 340 324 233 160 143 112 89 119 179 210 239 241 241 183 163 143 132 158 158 181 164 151 142 157 196 141 132 135 156 113 130 119 97 55
73 87 88 30 49 97 202 105 30 55 282 253 282 359 491 480 312 211 190 174 196 146 122 141 184 247 256 287 217 150 142 83 99 97 109 144 155 177 181 164 175 181 172 182 195 160 130 118 94
98 82 96 75 66 252 293 124 111 183 221 186 238 379 501 549 471 353 341 259 224 179 133 139 164 205 211 229 224 211 176 76 40 34 77 109 137 178 155 171 193 184 157 170 174 171 152 155 126
95 137 175 136 57 174 169 113 38 104 129 108 137 460 547 660 544 435 417 310 252 187 117 100 128 169 183 164 176 206 178 158 103 32 64 59 79 133 102 136 139 133 153 180 189 172 185 153 175
118 164 151 96 -17 85 98 117 73 18 115 134 108 426 696 707 536 440 390 290 290 199 120 95 96 123 131 132 143 161 144 124 152 65 102 99 74 111 98 97 115 147 160 169 177 145 169 154 174
159 190 156 70 8 57 109 164 119 102 148 167 158 450 634 557 476 416 326 268 248 198 143 103 71 90 110 79 79 74 90 72 81 68 101 94 112 119 107 111 102 124 134 176 210 187 134 117 201
178 204 139 111 75 94 116 37 102 122 109 160 230 367 427 416 389 371 312 256 222 176 128 116 107 101 113 106 85 88 81 65 54 56 59 90 102 72 82 74 56 68 84 105 139 174 195 150 139
106 173 131 120 179 168 225 125 109 111 115 196 376 469 488 394 340 333 247 262 189 159 148 134 123 122 101 100 81 77 48 30 17 10 17 50 90 67 51 36 38 58 71 124 149 170 171 214 210
183 105 179 220 241 186 189 235 115 94 95 195 308 479 437 388 329 263 247 214 164 171 164 138 138 124 105 102 86 50 34 10 -7 -1 20 31 37 55 60 59 68 80 65 68 80 123 156 166 202
186 273 324 255 195 198 185 148 97 106 94 147 386 443 414 334 359 348 307 307 237 180 191 166 164 150 124 104 93 69 46 13 -10 -21 -30 -26 -15 6 29 34 42 53 68 86 80 84 99 94 118
254 322 286 264 335 251 88 176 186 33 -18 81 179 299 397 437 465 438 340 302 239 181 182 181 187 173 137 116 101 93 64 34 10 -16 -30 -22 -8 5 34 28 30 24 38 61 86 94 108 134 138
255 193 319 326 244 170 184 296 316 31 -3 71 224 362 375 481 545 380 288 311 264 212 215 201 185 171 156 141 131 104 89 42 23 15 5 11 31 25 39 39 42 50 51 64 76 75 106 125 136
219 265 66 149 209 287 239 177 130 228 264 298 250 286 327 372 373 311 382 335 337 287 231 187 177 168 170 152 130 108 93 77 44 38 49 64 68 48 37 30 33 38 39 56 63 53 66 71 89
111 88 268 287 340 315 278 231 185 236 184 209 235 192 231 287 324 497 411 374 333 255 220 250 215 189 170 169 128 105 93 98 72 67 83 86 77 53 48 49 35 32 24 21 33 28 29 41 51
248 210 136 103 197 365 308 239 146 159 84 63 111 112 113 133 245 456 358 325 204 181 187 254 240 209 182 148 143 122 91 73 77 93 95 76 61 50 37 26 17 17 6 13 18 4 8 11 8
47 64 92 226 273 190 250 263 94 59 35 10 45 51 103 182 319 405 450 435 182 85 172 231 219 188 155 153 151 121 112 98 97 98 90 69 68 57 25 36 45 48 38 28 14 -21 -27 -18 -38

GFSSGP_con_3kmhel_147.txt.gz
Helicity
32 13 12 8 92 162 207 122 61 60 61 42 31 59 88 123 211 220 51 34 53 83 38 26 19 25 39 37 44 52 58 70 78 74 67 58 50 49 51 55 55 58 62 68 68 63 52 67 55
29 9 17 23 145 270 173 60 107 41 30 70 105 81 159 179 148 71 38 31 51 40 20 36 41 53 48 40 37 48 54 66 70 70 63 60 56 53 51 50 54 60 63 63 66 69 74 74 59
8 22 46 102 191 275 201 37 99 17 12 108 102 148 147 114 106 34 -3 10 20 43 42 47 60 53 43 41 48 58 65 65 65 64 65 60 53 49 47 48 46 49 53 54 57 62 77 81 64
22 32 48 171 255 170 125 39 83 144 151 176 159 192 229 83 67 36 -6 -5 38 65 68 51 57 44 59 54 62 66 70 68 64 62 62 63 53 47 44 44 43 41 40 41 46 58 60 64 64
29 43 107 202 269 199 88 52 51 111 166 199 169 200 205 130 114 115 147 128 129 123 122 122 124 102 83 49 52 62 60 56 53 52 51 55 53 47 43 41 39 43 44 43 42 42 54 56 48
80 53 120 220 246 150 107 56 110 185 203 206 256 291 234 160 231 199 225 245 197 188 192 193 177 139 100 81 78 65 54 48 45 49 53 53 51 47 41 41 40 38 39 38 35 43 44 56 54
110 110 66 157 218 203 147 98 156 192 179 180 215 216 199 320 235 270 304 317 322 288 257 230 204 185 146 103 86 106 118 110 120 118 90 68 55 50 42 46 46 45 47 44 37 36 46 59 77
119 107 84 77 191 179 138 119 134 138 164 193 239 127 208 242 305 358 356 337 338 321 287 269 236 206 152 142 155 139 147 176 192 190 166 146 132 114 99 92 82 81 65 68 60 45 44 51 75
114 105 89 115 152 178 158 127 144 135 174 149 130 207 278 300 308 411 378 350 285 260 242 226 222 204 177 161 170 150 195 198 193 188 191 150 144 143 136 164 144 129 112 90 87 71 52 51 54
125 92 53 123 168 162 145 150 147 161 168 255 337 417 357 334 406 457 368 309 282 268 250 224 202 176 156 151 186 188 181 158 184 208 214 210 212 184 187 200 182 161 144 126 104 96 84 88 97
116 68 93 152 174 160 118 103 149 174 165 151 271 322 329 390 438 430 373 288 205 154 198 183 140 142 157 162 150 151 171 165 167 219 214 215 197 198 231 186 158 118 136 121 109 72 65 57 72
138 108 103 136 116 158 196 141 132 102 109 168 309 358 366 380 366 322 276 215 188 195 181 140 136 156 184 178 205 218 234 233 190 192 199 202 211 219 180 155 139 100 115 118 105 98 79 68 51
99 114 149 169 146 121 128 108 98 139 159 329 370 343 338 331 293 248 210 185 168 166 123 117 101 110 139 196 211 227 232 244 240 229 200 151 173 170 174 176 147 132 148 150 133 135 97 56 48
123 78 94 111 127 146 119 101 102 104 272 405 367 326 295 285 267 273 220 181 164 153 154 149 191 163 168 167 175 183 192 185 200 211 200 149 77 106 138 173 186 191 156 141 130 131 124 98 73
53 11 49 51 61 65 102 68 85 137 180 294 282 313 343 333 267 209 178 179 167 181 187 196 204 196 226 203 178 175 157 149 162 165 190 192 171 146 134 152 184 186 168 165 155 145 137 135 145
83 55 33 55 59 67 141 33 57 171 290 285 292 374 419 397 308 243 224 226 222 223 190 162 204 235 271 249 210 196 184 171 158 142 137 150 138 119 104 94 112 133 132 140 155 150 160 151 133
117 77 65 70 108 144 138 93 8 111 197 301 376 466 514 464 360 274 263 265 267 255 236 248 253 269 302 318 260 199 169 152 121 116 106 117 125 108 64 67 85 100 99 102 109 130 118 141 135
82 114 100 71 135 142 183 127 111 70 142 233 407 478 478 417 346 292 322 336 330 310 304 270 244 259 299 310 225 171 149 124 104 81 85 92 76 90 73 68 69 47 38 65 95 99 125 78 111
118 112 118 84 106 116 156 177 140 183 215 223 305 377 436 441 404 380 396 410 388 342 295 257 245 229 224 205 166 149 108 87 94 77 80 71 59 38 34 17 32 43 32 39 48 42 92 105 152
99 114 109 61 80 162 133 150 156 189 194 227 349 370 484 516 459 454 454 419 385 342 301 268 268 254 232 170 146 108 98 109 71 69 67 62 65 69 58 55 49 54 52 83 85 82 43 66 130
131 148 125 117 118 118 111 117 158 160 195 225 278 358 452 549 568 516 476 420 357 326 303 293 272 256 225 185 175 160 116 92 89 79 63 51 47 39 38 44 43 50 60 70 108 121 131 109 127
182 138 117 151 184 138 132 83 106 139 187 210 228 306 391 453 509 476 471 406 335 313 283 277 253 241 218 202 202 212 126 83 54 40 33 41 42 32 25 23 25 30 36 66 94 116 134 156 155
177 125 162 206 211 202 233 180 99 164 195 119 116 193 285 441 515 478 398 361 347 275 244 227 216 197 196 197 161 167 134 84 62 64 61 51 38 43 28 16 8 17 17 43 74 97 124 133 146
226 277 323 303 267 242 256 218 143 175 188 222 247 236 298 382 432 416 423 396 332 219 177 160 177 191 204 206 189 185 138 107 101 90 71 55 44 43 50 34 29 23 15 22 13 41 71 86 109
277 345 413 387 418 309 142 200 221 183 185 158 197 224 266 331 429 450 415 271 179 129 135 153 179 192 173 168 163 139 119 101 83 67 52 50 47 35 63 65 67 58 51 40 12 26 35 40 56
222 291 387 378 314 225 196 279 286 253 268 292 249 230 295 397 423 343 239 185 142 133 124 137 124 122 111 108 113 104 93 76 71 67 60 58 34 48 81 78 76 77 66 45 22 16 0 -1 -7
265 294 247 258 260 287 241 289 310 285 252 174 140 232 268 336 270 211 166 192 230 229 266 212 144 107 95 92 101 108 104 105 97 96 83 73 78 80 89 90 94 84 65 34 18 15 14 4 -9
175 215 327 414 371 395 402 372 347 282 198 137 115 127 125 161 142 118 217 326 297 298 223 193 252 209 210 172 144 124 110 102 92 110 119 93 89 101 97 94 89 80 65 43 30 31 29 12 1
295 313 321 305 379 359 392 319 210 210 104 55 13 -4 13 51 51 203 351 364 348 325 276 259 264 215 193 148 140 146 131 124 128 131 105 90 109 105 103 86 81 77 67 59 50 24 33 31 32
272 383 384 417 452 484 481 402 123 131 93 -6 -13 1 32 51 142 311 389 467 428 360 341 304 262 225 248 183 152 143 165 174 164 141 114 107 108 98 90 84 68 59 64 66 61 44 41 52 52

GFSSGP_con_3kmhel_153.txt.gz
Helicity
8 14 15 33 62 95 136 124 91 107 80 15 24 15 40 67 57 64 64 57 18 38 31 33 39 39 48 88 79 81 66 45 51 55 59 63 60 65 66 62 57 55 53 50 52 48 49 58 69
20 20 35 63 90 127 152 112 107 84 53 68 102 59 60 66 78 103 121 48 62 75 66 72 49 36 63 86 66 65 73 55 56 61 57 57 57 56 53 51 50 54 54 51 51 48 52 59 67
38 38 68 114 121 139 156 119 129 98 90 70 62 71 52 92 118 71 74 91 133 148 128 115 110 118 81 150 100 57 82 72 58 56 55 61 60 57 52 48 42 45 49 46 45 55 62 65 72
55 74 90 128 113 125 140 152 101 110 93 74 80 86 70 63 38 50 84 111 157 184 158 146 139 104 100 123 130 117 141 121 95 90 79 75 73 64 57 51 43 44 48 42 36 46 54 59 65
72 102 121 135 117 134 105 86 112 117 85 56 49 65 54 34 72 83 103 107 114 130 137 151 158 162 156 164 154 159 168 158 144 129 116 107 105 95 84 68 52 43 38 42 40 42 43 50 52
117 117 131 125 117 142 112 109 78 121 101 79 83 115 36 27 48 80 83 125 119 123 135 143 154 152 143 156 161 169 172 173 169 156 152 153 157 155 154 142 113 80 57 47 40 45 52 60 56
127 135 122 119 126 141 153 106 93 127 117 95 95 109 65 42 46 107 126 122 130 127 124 127 122 135 167 167 170 170 172 168 169 166 152 170 170 171 174 176 148 123 91 73 48 41 35 45 68
121 131 111 108 129 155 129 123 91 120 157 176 105 88 78 36 80 119 142 142 121 114 112 101 92 89 110 138 173 193 189 176 172 155 155 149 172 171 187 179 204 199 172 142 126 109 81 64 64
101 138 108 107 124 147 109 141 151 197 231 206 184 104 79 204 142 137 145 128 105 108 105 91 91 99 110 123 142 157 169 185 186 174 184 154 149 164 175 210 219 219 194 160 136 136 135 111 70
130 112 74 95 108 151 124 123 165 193 204 210 176 163 178 219 165 131 126 121 107 107 111 94 99 108 127 123 143 159 168 176 211 215 210 180 162 171 167 203 229 216 195 159 151 142 96 72 79
109 101 86 93 99 111 147 135 131 162 165 102 113 160 173 209 162 140 148 125 113 112 115 123 116 109 106 122 138 154 157 161 186 221 213 207 183 168 176 172 184 170 174 111 87 76 72 79 77
108 70 68 75 84 104 139 171 161 138 127 94 92 164 227 221 174 155 164 140 132 136 138 134 121 121 129 117 130 134 140 144 168 202 214 184 160 160 159 164 166 155 143 139 108 74 69 58 80
94 100 86 60 67 56 114 136 142 132 136 121 160 186 187 200 192 190 190 176 153 158 143 132 115 131 131 129 107 116 119 125 130 147 177 151 143 137 142 142 125 128 123 118 108 100 89 79 83
83 81 70 49 60 75 83 111 129 132 134 132 133 169 193 213 230 239 198 176 170 170 153 142 148 156 149 136 131 135 126 131 136 139 141 145 123 115 122 121 120 124 133 129 116 109 98 94 86
76 72 69 55 67 79 80 73 108 133 105 118 90 157 203 217 226 194 187 196 179 176 161 161 167 161 177 168 159 150 137 129 121 114 131 129 123 118 111 106 104 101 95 101 100 112 117 110 110
92 86 80 75 81 112 112 -5 70 120 163 135 151 181 201 224 198 209 227 237 235 207 194 188 190 207 227 206 186 170 153 136 126 112 113 131 128 115 105 95 97 93 84 90 100 93 87 87 87
120 102 89 81 82 123 109 83 85 102 111 140 184 195 215 234 218 234 264 280 264 251 236 241 254 260 246 223 200 198 178 143 126 122 132 131 126 111 93 87 81 72 70 74 78 86 85 83 89
64 93 108 89 105 164 149 75 70 106 90 98 147 200 207 211 221 265 289 296 273 253 253 246 257 256 239 200 182 185 175 163 152 140 131 127 105 106 78 70 67 50 50 54 63 69 69 51 59
105 100 87 69 81 140 117 102 40 101 100 117 143 177 196 201 235 265 285 292 296 291 271 246 263 246 185 144 136 150 151 157 158 136 139 131 107 108 110 75 66 59 62 62 56 34 47 56 61
119 92 96 72 63 85 63 66 67 98 132 92 111 140 160 237 281 305 333 316 293 293 292 274 255 204 164 150 156 147 172 183 144 132 122 107 111 103 83 76 67 76 59 79 84 85 52 31 36
156 153 135 99 77 49 54 8 65 123 135 132 124 116 144 243 356 400 413 379 355 335 295 244 221 201 182 183 193 218 197 147 135 134 124 133 126 110 95 89 78 78 70 65 72 80 90 77 72
109 114 139 145 155 135 110 -12 107 94 104 158 153 182 178 231 331 395 447 425 369 341 289 257 238 230 208 173 162 148 147 130 117 110 109 107 113 95 88 81 71 62 45 54 53 68 71 66 83
171 155 120 172 189 194 190 206 189 149 95 75 128 138 142 205 261 351 408 377 349 304 274 261 233 205 151 124 138 153 167 151 122 110 103 104 104 113 110 100 81 73 56 57 73 80 81 63 56
200 201 249 273 254 247 222 194 -74 141 146 199 222 180 143 149 176 267 371 414 394 334 237 193 171 134 119 131 135 145 153 144 126 119 126 130 114 112 121 95 86 80 81 85 84 79 85 73 62
255 299 252 236 344 338 191 205 218 223 191 174 155 111 98 128 161 210 356 396 322 192 159 125 101 125 131 159 201 201 193 189 185 157 155 121 104 100 95 85 82 69 84 93 96 87 66 65 54
243 265 334 322 275 196 257 364 350 299 261 220 199 145 145 154 139 148 239 224 152 136 118 116 128 160 189 176 194 193 184 157 148 154 127 127 114 85 96 99 85 87 94 90 84 84 57 55 46
146 241 184 248 242 243 266 283 203 222 206 223 209 162 126 89 81 97 107 118 121 113 112 117 145 156 149 147 149 173 166 145 138 158 141 120 85 106 93 84 95 99 103 90 73 75 80 59 62
174 167 234 344 329 307 285 264 278 197 144 154 139 131 132 86 51 33 33 52 32 69 104 125 138 162 154 151 155 156 149 153 169 181 173 120 111 113 101 103 91 94 90 84 80 75 80 82 74
235 263 269 290 315 365 281 250 256 172 208 281 286 292 242 159 76 29 -12 7 66 127 172 185 187 182 169 150 171 183 165 175 173 125 109 116 103 108 92 100 103 110 105 98 92 85 81 78 77
280 291 341 345 334 373 346 279 271 347 354 451 462 345 259 195 102 43 29 77 132 189 216 236 218 174 146 169 204 208 189 168 109 115 124 109 112 106 112 118 113 113 106 101 96 87 74 77 81

GFSSGP_con_3kmhel_156.txt.gz
Helicity
3 10 7 16 37 47 70 103 120 118 109 57 53 25 50 84 24 64 80 80 73 82 69 62 53 45 34 34 63 69 73 85 83 65 56 57 61 61 61 52 42 38 43 37 34 39 47 46 48
13 12 16 47 49 65 86 121 96 136 94 53 65 36 29 56 67 71 91 138 94 75 72 70 66 67 67 73 69 79 108 115 90 85 76 68 71 65 59 55 43 39 41 35 33 33 43 49 46
17 10 37 66 72 48 102 112 155 139 74 31 40 40 25 52 90 86 132 119 97 118 113 101 68 78 98 117 78 109 118 125 117 110 104 94 92 87 80 71 64 54 50 42 37 34 39 50 47
40 60 72 59 76 133 125 118 116 137 68 33 32 66 33 45 56 61 83 100 128 134 117 113 111 107 114 132 92 118 117 120 125 117 108 101 101 96 94 89 78 65 62 56 52 56 59 59 50
49 77 76 72 89 151 102 103 90 87 102 62 31 61 46 32 54 64 66 86 107 125 109 110 127 141 151 159 126 147 141 136 132 124 114 106 104 98 90 86 82 68 55 46 42 50 63 60 68
63 94 84 86 113 136 103 76 76 101 103 72 44 72 63 20 14 37 45 70 80 85 102 113 137 152 149 148 149 168 163 157 143 140 149 146 146 142 140 123 101 75 57 50 42 38 38 54 50
48 72 61 97 100 112 128 81 77 90 98 78 69 76 65 26 20 38 45 54 61 70 75 88 102 128 164 177 173 174 167 160 152 144 145 145 160 170 174 177 161 136 113 103 88 80 65 56 55
94 95 89 73 84 94 128 95 30 66 103 154 65 89 67 17 39 49 52 59 65 70 76 74 74 75 88 116 171 174 178 198 187 166 144 140 145 152 166 139 192 185 175 161 143 125 112 89 66
90 85 63 71 72 140 115 93 72 105 143 111 120 115 88 148 81 75 70 65 65 73 72 69 68 70 85 100 115 128 142 155 134 128 149 107 162 159 164 205 210 213 198 195 181 142 96 80 48
73 62 84 148 119 146 109 70 102 90 112 99 115 114 109 137 90 83 65 69 67 77 75 70 75 89 93 104 118 124 132 141 163 174 166 156 167 174 159 173 193 207 194 155 121 105 64 75 115
93 47 121 101 104 107 98 84 79 63 99 77 71 122 96 98 74 75 59 86 91 81 79 78 90 93 81 78 73 81 88 104 138 172 166 155 142 139 136 127 138 152 176 148 126 97 105 98 74
66 59 60 104 94 97 85 117 60 62 82 52 65 97 91 93 77 87 102 118 109 117 112 119 126 117 103 80 82 82 90 103 125 148 163 139 129 129 124 114 104 110 122 132 129 106 97 79 71
60 65 67 60 61 60 90 89 96 85 118 95 90 92 92 79 91 114 143 150 160 149 145 140 132 124 117 119 110 105 101 108 113 115 128 113 105 108 107 107 108 110 112 116 124 112 100 85 75
122 68 50 57 49 73 82 80 116 88 128 125 101 83 90 92 118 165 197 190 173 159 153 136 147 148 148 147 142 119 106 108 118 118 119 109 92 85 79 79 81 84 89 90 91 99 101 104 100
70 54 37 29 24 47 62 88 142 83 99 105 95 95 95 106 141 157 200 202 184 173 167 158 180 179 178 171 162 152 137 120 130 107 110 100 89 82 76 76 77 77 70 70 71 67 65 67 74
60 57 58 76 53 84 90 17 66 93 114 100 95 107 111 120 165 198 225 201 190 183 162 172 190 199 200 191 182 170 143 133 144 127 117 134 126 114 106 99 91 72 65 66 67 70 76 78 70
49 71 49 56 46 110 80 38 82 171 82 80 99 110 118 134 171 205 202 196 192 189 190 203 210 206 200 197 201 193 167 151 153 152 143 144 139 116 85 91 91 75 71 72 69 67 62 68 82
110 44 50 35 79 44 64 45 107 104 95 51 64 88 118 153 167 209 194 215 218 219 220 227 225 216 218 217 211 198 196 189 185 179 164 141 125 123 97 81 81 70 76 78 77 75 74 59 57
84 84 56 20 48 56 44 42 40 76 102 89 76 71 95 122 178 213 225 232 234 253 255 233 223 215 207 205 214 201 199 204 194 182 161 138 134 125 114 90 70 62 70 68 63 60 72 84 80
54 61 50 19 38 57 29 36 56 53 89 85 110 93 91 134 220 218 228 231 239 248 258 246 227 216 226 218 212 195 196 196 179 166 167 143 127 112 83 67 72 89 70 84 88 88 75 61 67
57 57 52 55 69 50 14 1 26 64 61 98 95 105 92 119 196 192 228 245 260 279 261 225 216 220 220 204 187 196 199 157 143 143 140 144 134 108 93 88 81 67 70 80 88 77 80 64 55
50 55 60 78 82 59 125 -15 95 145 122 72 80 127 130 145 176 206 257 281 295 287 255 214 219 202 184 146 146 125 137 139 169 159 144 136 132 122 107 95 86 84 74 91 79 77 66 74 64
69 172 94 98 112 94 87 74 85 159 113 87 76 77 94 128 174 225 239 262 270 274 231 224 191 163 143 127 122 133 159 173 162 162 148 136 120 110 102 93 84 100 87 83 86 82 80 62 63
171 92 101 105 121 155 122 150 -80 118 236 164 266 139 107 117 150 204 201 207 238 248 277 222 168 158 161 148 144 139 149 138 134 130 151 148 134 113 121 110 114 89 83 84 80 88 106 101 100
103 129 156 125 219 235 205 202 225 173 216 254 174 104 67 91 129 133 132 171 232 287 250 209 174 187 173 151 149 156 150 152 149 155 146 123 120 131 153 132 121 118 127 116 104 108 109 109 106
34 79 212 287 211 144 142 279 255 257 167 160 135 130 140 120 108 99 124 142 188 213 217 189 176 174 150 139 135 138 135 162 162 168 152 155 157 150 124 123 120 126 109 99 97 93 94 94 90
90 97 35 142 165 224 251 183 141 148 120 162 200 196 139 97 90 86 99 129 152 201 183 159 150 122 117 130 140 149 159 150 159 151 135 150 137 128 113 121 119 98 108 114 106 108 98 87 89
127 251 190 245 322 263 207 160 157 213 267 232 223 246 210 180 142 100 104 114 163 170 142 108 91 114 135 140 143 131 141 142 135 148 162 148 128 129 130 102 98 107 117 105 95 98 99 98 88
200 220 279 291 243 268 240 195 222 296 318 296 356 391 366 322 236 155 137 152 136 90 72 77 112 139 124 120 125 145 144 139 156 153 159 132 138 129 107 95 113 125 117 109 99 101 101 101 94
344 320 303 295 231 196 214 200 201 220 224 302 355 391 378 317 230 160 75 50 48 50 72 100 109 90 124 172 181 179 190 173 151 148 153 125 126 105 112 126 132 112 104 104 112 128 119 118 114

GFSSGP_con_3kmhel_159.txt.gz
Helicity
34 54 28 7 23 39 -6 57 7 67 46 58 44 15 112 195 137 99 68 134 238 119 80 58 61 58 58 71 63 60 55 51 55 61 69 66 64 55 51 48 44 40 41 40 44 40 32 34 26
-11 -13 21 7 37 -6 44 115 86 39 92 71 91 75 46 144 91 45 74 101 150 95 65 62 64 60 64 83 108 87 78 83 85 92 103 96 84 72 62 56 48 42 37 36 36 41 37 45 43
19 -4 6 44 46 -4 -10 93 29 99 110 89 112 30 84 97 115 93 119 137 139 100 88 71 54 63 50 115 112 115 98 99 114 105 111 109 103 91 83 71 58 49 41 38 37 45 48 45 45
27 41 52 46 5 -3 39 70 39 97 76 20 36 97 84 88 63 66 93 116 129 147 101 83 60 73 122 116 118 128 104 102 112 107 105 112 110 105 97 90 75 61 54 48 41 43 59 57 59
33 32 41 41 13 7 100 40 41 60 49 45 11 112 91 61 47 66 81 111 124 136 106 111 113 101 118 122 134 135 110 100 106 104 99 100 100 94 89 83 75 70 60 51 44 40 49 57 46
33 67 49 29 -4 89 72 35 23 28 57 21 28 126 99 43 42 63 77 94 112 119 118 113 128 140 153 156 155 142 115 113 118 116 109 118 118 126 124 113 95 76 68 67 64 54 48 45 47
38 61 38 1 6 45 72 39 2 27 45 56 17 70 89 48 52 51 77 75 85 92 87 87 108 135 173 182 173 158 142 136 128 130 142 156 159 159 157 164 147 132 122 120 111 95 79 69 58
54 61 33 9 43 13 131 119 -21 1 43 55 38 74 78 82 49 58 62 72 79 87 100 120 69 84 95 114 140 147 156 161 162 153 132 120 127 132 132 124 161 152 146 141 134 123 105 83 64
45 75 50 8 36 26 134 97 56 -37 63 124 104 157 129 147 71 66 67 67 76 76 92 90 88 81 71 77 87 102 103 88 88 95 83 100 118 93 135 171 152 151 135 129 124 111 85 53 42
49 54 18 104 103 97 67 23 57 38 34 124 136 147 158 114 85 79 79 100 84 80 82 77 69 75 70 93 98 108 118 130 142 159 141 157 161 163 151 118 117 114 123 93 98 79 64 38 103
24 29 -3 95 99 107 48 50 -17 53 33 77 66 115 93 81 79 59 76 85 92 93 100 107 107 85 87 94 72 58 67 88 128 162 160 166 137 135 122 109 112 113 106 110 92 89 96 129 107
64 27 53 56 100 65 58 7 43 25 -16 51 38 119 86 61 58 53 67 99 140 133 131 112 94 85 99 77 86 83 79 85 95 127 148 131 139 132 136 124 97 90 91 87 90 94 85 64 73
67 39 68 58 73 53 52 75 57 23 -3 89 33 146 76 61 40 48 50 140 140 183 178 157 132 124 113 117 113 107 93 103 101 111 147 138 125 111 101 93 97 88 82 81 78 74 68 58 59
118 100 73 44 47 46 57 52 41 31 16 88 64 117 76 69 54 72 113 178 181 211 198 175 162 144 131 136 131 125 133 117 117 111 123 132 116 106 88 85 81 75 64 60 62 68 60 63 54
49 47 38 29 31 31 45 37 31 36 27 85 85 91 84 84 67 83 113 175 194 212 199 186 176 156 152 151 159 157 141 130 125 124 141 142 130 127 116 103 91 85 78 75 72 66 65 65 68
34 39 39 31 80 42 54 42 19 49 8 72 63 73 89 99 85 103 171 174 199 210 222 190 185 172 166 185 174 172 166 153 148 142 139 160 161 148 126 112 105 75 65 66 71 68 69 74 71
49 46 22 43 68 84 83 49 9 36 94 46 25 48 65 97 107 149 189 216 228 243 215 221 214 211 209 218 230 209 185 177 178 174 172 179 181 156 124 117 99 75 70 64 59 51 49 47 53
27 41 61 31 71 82 63 48 27 71 111 99 44 15 54 99 139 182 206 188 199 209 213 223 227 225 223 224 209 203 189 184 184 202 213 183 161 149 117 108 97 72 79 76 73 76 66 51 59
70 100 94 34 30 98 80 52 57 45 94 75 72 58 53 98 125 202 243 224 208 225 209 208 242 221 214 199 195 187 190 191 208 232 215 193 174 164 143 113 107 94 87 79 80 67 84 92 90
70 63 43 22 26 47 51 39 52 58 65 80 96 64 71 100 151 281 243 224 207 211 211 216 220 206 186 192 192 224 213 222 231 221 215 201 193 177 138 120 92 75 54 73 75 76 66 61 79
66 54 48 43 48 46 42 32 40 68 38 47 84 87 73 82 160 284 245 199 198 215 223 223 214 195 215 273 273 240 239 216 211 199 197 193 170 143 125 121 112 92 86 77 71 77 90 73 70
74 54 57 69 67 59 32 50 67 37 42 72 51 104 41 99 133 254 197 171 187 211 217 220 228 236 273 216 209 184 196 204 227 205 187 177 161 152 136 124 118 115 89 92 85 73 68 81 84
64 124 173 120 86 74 59 83 68 28 69 40 129 63 51 38 107 208 230 166 171 209 234 226 254 251 256 205 211 195 213 320 218 192 162 165 148 155 146 139 136 125 107 92 82 88 99 98 104
114 178 86 98 111 137 100 84 -2 104 160 151 115 122 53 71 77 116 250 185 182 219 229 221 252 239 230 220 209 201 265 209 190 161 136 126 124 108 129 133 130 135 118 93 89 105 112 109 102
62 133 176 152 210 213 125 131 146 135 171 259 247 198 133 105 124 151 286 202 161 191 187 218 216 239 230 215 209 223 212 180 149 122 137 109 123 134 140 133 137 121 113 106 102 89 88 102 116
75 94 222 227 237 199 133 152 125 177 127 191 225 214 210 137 129 154 165 142 134 182 184 174 184 225 202 221 249 228 182 175 174 170 145 151 134 122 122 135 147 123 115 120 107 109 113 112 109
114 148 53 206 240 314 294 243 78 160 130 172 291 286 317 246 179 130 131 123 144 189 197 152 166 215 223 216 196 166 169 147 146 148 130 131 133 133 143 150 134 135 124 132 126 126 116 104 104
102 218 221 278 328 280 194 134 161 243 173 112 203 203 162 130 111 117 114 170 186 164 171 202 277 210 170 171 152 142 139 147 151 118 123 128 133 154 128 124 123 129 137 138 130 118 113 110 107
88 143 196 241 197 283 292 237 204 233 347 316 218 171 203 198 189 163 157 174 143 163 194 220 197 192 176 152 155 155 164 145 111 118 151 125 140 121 126 128 132 138 130 134 147 129 123 121 120
205 199 87 192 203 172 160 192 136 151 98 176 188 238 298 259 305 214 166 148 159 203 233 209 208 179 104 102 121 120 131 141 169 169 180 167 139 127 137 142 138 120 137 156 146 136 127 141 146

GFSSGP_con_3kmhel_162.txt.gz
Helicity
37 79 62 52 25 45 29 51 26 58 82 78 49 61 64 138 63 141 120 278 326 194 135 86 77 82 71 62 61 61 48 47 39 33 43 59 63 56 58 54 45 34 37 37 31 24 22 22 20
-10 -9 9 33 38 -4 4 38 62 36 161 135 154 82 149 104 104 104 133 162 193 176 136 97 89 97 90 65 71 67 75 70 53 62 58 60 67 63 60 59 51 52 49 48 46 45 39 44 36
21 7 31 38 29 16 -37 55 44 149 110 125 68 39 118 169 161 105 76 149 100 151 141 112 91 72 55 76 70 81 87 88 71 74 73 71 72 70 70 63 57 51 53 59 53 43 45 40 37
28 16 44 62 22 -63 -68 52 74 67 65 68 56 132 119 199 104 90 85 106 83 191 141 120 94 80 72 104 83 99 88 94 82 79 80 74 76 77 80 74 68 58 51 47 47 46 61 48 41
27 39 57 42 5 -12 -1 101 73 16 65 -6 6 216 208 147 84 88 97 123 267 225 118 134 110 82 93 108 96 101 97 102 86 75 81 79 80 81 82 73 68 65 59 52 45 45 41 41 41
53 36 43 30 -4 -30 47 106 74 13 60 52 -11 216 154 82 86 75 106 198 236 147 146 128 131 131 121 123 116 117 109 100 91 82 94 100 107 109 108 100 88 77 75 68 58 50 43 41 38
35 54 37 -1 -17 -21 -26 143 137 29 0 59 21 127 119 109 117 105 129 203 179 116 121 119 123 145 165 157 153 135 133 129 127 126 131 136 126 122 123 127 122 122 110 101 91 78 64 45 40
35 40 2 4 15 -26 112 124 80 8 -16 59 94 98 151 153 168 136 148 153 141 117 86 109 109 119 141 152 161 152 140 133 127 118 121 119 116 110 127 131 149 135 121 113 101 87 72 55 32
24 56 25 -1 -29 57 133 120 70 26 -3 95 96 119 133 226 141 158 120 105 201 166 143 93 107 124 125 122 107 93 84 85 98 105 126 122 114 105 147 136 124 124 114 95 90 78 65 46 34
59 56 11 -46 70 71 53 87 23 52 -25 96 231 202 197 122 131 145 126 157 144 136 129 128 149 124 71 86 60 69 89 84 95 103 88 87 104 123 107 98 106 108 104 84 81 83 82 131 136
33 40 3 -26 49 76 121 86 24 -19 33 39 213 241 193 105 126 134 108 129 104 121 127 130 128 70 79 82 87 109 106 113 131 150 109 92 94 114 100 80 71 102 100 134 110 120 123 102 99
55 2 24 10 36 74 60 55 -8 -5 37 -15 144 254 164 90 108 122 95 135 144 138 170 161 136 86 133 78 70 129 135 109 113 138 170 111 143 155 184 155 145 122 98 81 90 89 69 70 65
79 56 47 32 43 70 74 56 60 13 52 -4 68 284 209 83 79 80 39 138 198 167 169 118 120 108 127 168 224 190 131 143 106 136 204 201 183 154 154 124 119 91 83 79 77 63 60 60 56
76 50 92 102 71 56 66 49 40 25 -12 1 81 113 92 77 72 53 62 223 339 222 225 239 228 245 229 265 213 200 197 167 169 163 179 192 148 164 146 142 117 103 70 63 64 69 67 68 65
90 110 73 32 32 35 32 66 51 14 2 41 67 90 121 99 60 64 74 395 280 319 230 262 254 225 291 266 204 177 156 170 159 156 175 188 142 154 132 132 124 110 85 99 85 71 68 67 69
86 72 74 23 3 78 80 79 25 51 14 44 89 66 96 142 66 67 110 238 302 292 291 256 240 269 228 237 230 199 206 188 155 148 160 178 167 163 175 144 137 121 104 82 79 68 66 70 68
84 95 36 6 10 102 93 96 26 -8 9 58 59 118 101 86 131 64 191 275 311 319 344 312 285 244 299 270 278 257 222 203 177 155 184 197 213 212 184 168 142 116 105 80 68 61 59 66 65
52 24 30 11 1 97 86 89 72 18 -1 27 88 118 83 91 127 161 248 296 336 397 393 358 302 333 325 340 284 249 276 252 242 238 213 209 226 226 168 146 135 113 113 91 83 75 70 61 58
26 49 68 36 9 77 41 50 46 32 22 83 88 110 139 32 139 260 386 483 452 436 419 365 360 324 325 293 294 282 269 270 273 254 240 239 223 219 203 153 139 110 96 91 92 78 87 65 65
27 87 55 60 54 57 78 80 31 71 24 46 136 112 95 49 50 346 535 685 609 511 422 335 316 273 249 247 229 218 266 238 256 247 254 251 248 223 194 173 152 158 104 101 99 115 108 57 58
82 111 66 52 51 61 89 72 69 48 60 49 65 131 134 91 27 359 573 636 575 453 387 298 267 206 188 215 359 439 399 342 272 226 262 264 242 234 213 191 173 153 153 116 97 103 97 97 84
83 66 44 40 79 107 63 38 91 34 44 65 153 92 169 137 79 341 564 569 516 413 354 260 214 167 186 370 402 322 263 237 202 312 263 254 255 235 197 188 157 154 114 112 109 120 116 103 107
74 32 54 111 191 147 80 142 30 47 37 35 56 191 150 198 71 339 464 454 408 284 289 255 222 167 306 337 285 234 186 350 431 342 259 266 255 224 194 173 154 126 109 113 126 109 110 101 98
114 99 116 127 129 126 110 117 -23 79 138 232 129 189 148 168 111 249 372 446 360 276 265 261 243 214 346 254 264 181 355 379 392 276 243 224 217 191 159 126 122 124 110 117 112 105 114 130 109
148 181 205 217 247 233 120 83 161 229 220 308 309 220 318 290 236 226 397 385 329 310 340 286 234 283 359 241 304 242 375 378 291 254 280 262 180 136 118 121 122 105 113 115 114 107 110 108 107
77 78 237 211 198 131 203 232 157 402 360 428 420 358 276 309 268 171 216 248 277 339 345 306 285 281 342 252 284 327 409 402 356 330 275 196 175 141 98 112 121 110 116 112 109 103 93 98 108
83 125 46 90 135 256 250 235 80 177 79 16 76 250 350 239 221 294 241 197 276 346 335 310 238 284 352 319 369 426 427 375 321 270 245 209 166 87 121 112 109 109 100 100 102 109 128 129 135
145 68 195 213 330 287 196 144 187 231 251 245 257 303 251 229 209 208 277 275 304 307 315 303 226 344 409 397 347 319 323 315 257 221 193 144 133 135 81 103 123 114 119 126 138 130 126 140 113
95 94 127 166 227 326 349 255 180 221 291 252 216 204 196 123 113 107 120 170 223 254 286 275 248 422 350 398 365 326 330 263 241 223 193 100 123 62 120 148 123 123 135 145 141 132 136 137 136
202 217 129 243 216 224 202 216 146 142 213 345 337 245 140 159 173 184 119 173 200 249 282 271 341 406 467 384 353 251 196 155 205 178 159 151 103 123 154 143 147 150 165 163 158 171 144 167 187

GFSSGP_con_3kmhel_165.txt.gz
Helicity
-19 2 70 57 58 73 11 31 194 28 66 88 170 237 130 98 113 152 176 242 254 215 151 157 137 109 97 76 65 57 42 43 38 26 32 26 21 32 34 27 25 22 22 26 21 13 15 7 -3
6 25 48 78 91 52 2 58 7 105 195 174 152 179 183 139 120 124 167 192 200 214 170 154 130 100 86 72 68 54 47 49 42 31 35 33 27 34 36 34 33 36 28 24 24 20 20 15 9
45 47 75 92 87 103 7 -28 77 138 159 132 150 226 251 259 119 156 156 172 222 232 175 143 108 91 90 79 75 61 66 39 66 41 42 43 37 44 42 38 40 42 41 41 33 24 34 20 11
59 102 67 126 47 13 22 28 38 86 73 37 175 266 175 131 131 177 144 101 276 216 188 132 118 98 87 77 78 80 73 51 70 52 58 53 51 60 58 49 53 50 51 47 40 41 44 32 17
90 106 99 90 38 26 23 103 63 132 114 86 264 245 266 194 168 169 169 304 221 191 183 132 109 103 99 85 100 101 70 64 69 65 66 59 64 71 69 63 64 59 59 62 52 46 47 32 22
105 123 120 84 20 16 -6 24 120 103 102 109 246 296 186 137 191 233 321 327 214 175 181 154 118 110 103 114 116 101 95 97 86 78 81 83 93 103 98 92 87 84 79 66 59 54 46 34 23
85 144 74 64 36 -28 -18 69 180 98 47 88 285 285 166 138 114 326 316 282 203 161 187 172 130 137 164 143 132 120 125 124 128 115 108 105 108 114 118 101 96 103 97 88 81 74 61 46 27
109 121 76 68 -2 25 31 79 163 175 69 62 258 217 179 140 234 332 299 227 174 122 175 170 144 140 156 153 139 125 128 122 133 129 121 108 104 117 107 102 108 123 114 94 90 84 72 70 74
112 151 64 41 40 53 -35 113 62 27 56 85 218 163 85 212 341 404 347 263 185 153 159 151 152 151 152 150 131 127 134 114 117 117 110 102 79 98 99 100 117 113 103 101 116 125 140 147 143
154 171 121 74 75 -21 -39 79 115 75 47 177 262 238 205 279 328 398 399 304 217 167 143 140 160 151 124 129 122 119 115 107 105 105 86 94 101 77 93 102 122 149 185 179 172 198 192 149 126
104 114 118 29 14 25 -63 -34 28 122 74 78 172 177 257 298 306 340 302 263 237 180 178 172 155 134 124 122 109 113 125 157 197 143 99 107 131 148 140 139 160 158 147 125 133 112 98 92 94
139 49 81 52 6 14 78 6 55 121 104 36 152 216 304 290 304 297 244 216 260 215 200 175 146 117 130 118 133 152 174 179 175 191 172 149 188 171 194 176 147 113 85 94 91 75 86 97 90
81 108 122 92 65 11 87 119 56 29 164 115 135 226 211 184 185 182 191 161 208 226 221 189 137 146 135 146 183 212 213 182 169 200 220 219 212 177 191 184 141 100 87 85 77 75 74 79 89
111 99 121 108 113 77 130 154 110 2 71 102 79 130 180 141 160 183 242 289 276 229 204 201 152 176 252 280 314 311 280 232 198 228 230 211 203 176 182 162 132 119 104 98 94 95 96 93 79
166 119 96 95 49 88 72 110 109 81 33 54 117 131 123 113 122 137 231 354 430 306 233 196 294 382 401 392 353 328 292 235 204 218 228 222 219 187 181 162 170 147 112 112 103 97 81 77 78
107 100 115 40 62 47 124 103 56 57 63 -3 58 131 119 110 45 99 297 391 533 572 456 410 437 448 428 382 352 349 278 234 209 219 232 249 264 202 184 187 179 138 126 121 115 111 109 106 88
141 200 92 65 37 80 143 230 136 62 58 66 25 105 166 165 174 242 338 421 521 575 582 560 477 425 415 392 368 354 284 246 232 251 253 277 261 203 210 202 195 172 149 148 121 107 107 90 95
187 131 108 162 15 -2 162 192 135 88 71 47 48 119 193 249 252 291 359 487 638 628 602 502 420 381 415 439 387 379 350 310 277 281 272 264 282 230 223 226 217 198 179 176 153 147 139 91 101
94 57 26 -0 -33 -22 46 88 52 86 97 43 30 113 146 250 272 376 461 633 807 806 780 654 495 424 462 443 394 410 376 372 330 303 284 304 327 289 248 273 260 224 199 164 156 115 119 111 118
84 111 68 64 35 15 21 73 33 44 96 126 125 113 131 169 196 441 579 811 818 863 814 725 638 511 388 313 295 294 344 347 322 315 306 343 347 335 311 286 272 191 183 191 183 162 96 81 124
51 49 37 37 29 26 66 17 78 72 66 93 149 172 182 206 238 441 715 819 799 816 796 699 590 413 278 226 263 366 420 416 365 318 342 373 370 340 304 290 257 236 186 166 152 144 127 84 106
93 39 69 100 105 89 134 -3 53 73 84 53 30 129 234 273 355 529 748 710 759 724 702 576 463 342 251 266 374 381 356 298 234 301 341 376 353 339 310 275 242 210 182 173 149 131 104 81 107
21 31 54 78 137 64 140 147 154 55 76 38 26 36 212 331 534 593 725 830 715 667 643 524 378 251 315 395 450 408 323 260 333 335 352 344 338 328 291 258 226 204 175 161 128 126 142 121 120
115 118 154 118 150 106 210 174 76 89 148 318 359 375 330 447 580 681 758 798 724 616 474 359 293 227 326 384 343 269 273 392 426 342 305 325 335 287 260 256 236 188 168 132 122 127 131 132 150
152 246 220 217 262 271 174 105 129 155 228 341 445 491 606 366 417 538 585 627 559 452 382 324 221 240 299 376 277 276 341 414 387 291 281 268 272 264 238 203 172 148 134 130 118 119 139 119 123
169 228 294 258 299 195 240 278 257 219 188 266 327 373 386 338 303 290 314 297 282 235 235 276 273 314 343 347 344 313 395 425 355 312 290 255 232 221 187 147 132 134 115 108 111 110 94 120 117
79 196 86 121 141 215 239 274 247 248 177 200 244 236 233 292 352 234 161 185 195 249 320 366 409 368 386 451 491 491 515 517 471 453 380 288 233 185 145 143 121 91 100 106 119 126 138 128 122
197 245 276 283 355 359 250 174 218 196 139 178 93 106 44 146 270 251 155 100 168 258 315 361 345 363 466 518 549 560 557 547 491 404 350 286 233 209 176 135 114 108 137 158 130 134 130 142 142
174 156 119 132 217 355 381 309 242 378 304 223 205 195 163 79 45 57 96 168 217 258 318 343 356 424 503 547 559 550 518 464 388 339 293 284 239 161 193 129 119 129 136 141 132 136 156 171 197
172 272 260 314 283 251 304 274 244 237 234 217 213 167 175 127 62 28 40 144 247 319 306 299 314 362 384 434 444 400 356 339 322 325 317 267 201 190 149 114 114 132 153 162 188 174 178 199 214

GFSSGP_con_3kmhel_168.txt.gz
Helicity
11 1 27 56 60 75 25 10 97 46 34 30 92 73 136 178 149 107 35 69 171 154 141 115 98 95 85 63 57 48 50 47 48 44 31 29 28 25 21 31 32 25 23 25 23 21 17 11 6
26 22 50 79 96 58 22 -5 3 -11 155 141 244 202 201 164 132 109 128 81 200 210 164 142 109 102 85 65 54 51 48 49 52 43 34 32 30 26 21 33 32 27 22 24 24 22 19 15 8
43 45 84 105 106 63 16 2 40 15 78 103 122 159 112 135 111 116 49 120 248 231 184 126 115 101 94 74 56 54 54 57 53 55 45 42 33 30 35 44 35 28 25 25 21 15 19 16 9
93 98 118 131 80 73 28 17 37 49 -22 166 219 269 219 226 104 63 150 232 236 198 170 125 122 111 98 84 73 67 64 74 57 67 66 57 53 43 51 54 51 40 37 41 45 45 29 24 18
125 122 152 146 71 57 -22 45 51 82 46 184 216 207 287 149 155 264 243 207 263 225 181 142 129 113 105 99 91 82 84 99 74 81 88 78 83 66 65 78 73 61 58 54 47 41 39 34 29
138 137 215 155 56 2 6 95 76 35 75 175 261 344 279 136 277 277 240 233 226 258 193 159 133 125 122 123 104 109 107 112 92 105 102 103 107 113 100 105 97 81 70 67 59 55 55 48 52
134 164 186 158 75 10 82 159 44 -0 116 147 274 390 260 197 252 267 253 261 192 206 205 191 156 152 148 132 129 139 125 117 119 130 138 120 127 126 106 106 113 107 99 94 85 75 90 94 89
129 188 173 157 100 35 111 143 -10 48 47 46 213 213 247 262 300 295 309 239 204 201 221 212 184 167 177 149 146 152 145 132 144 133 124 120 119 126 124 124 122 125 137 148 164 165 150 140 147
177 217 159 129 104 113 97 122 -12 -13 12 43 127 158 223 344 360 395 347 277 228 230 207 207 201 194 189 171 136 157 135 130 140 125 115 119 110 128 133 130 161 188 175 189 201 199 180 160 163
224 227 141 90 128 170 97 83 -3 11 37 42 90 165 377 331 350 406 357 336 266 222 230 219 219 199 193 170 155 161 147 121 115 115 128 126 128 137 123 180 211 215 216 202 171 159 148 130 107
193 243 136 51 73 163 92 59 -22 22 41 61 91 166 302 306 347 405 319 312 289 210 233 220 204 182 193 187 169 182 179 161 157 150 154 152 166 140 151 163 153 135 143 111 104 100 99 108 98
214 110 113 66 63 94 71 52 37 58 46 33 89 165 315 297 296 334 328 317 347 220 208 206 184 175 176 195 200 195 217 213 215 191 157 178 193 198 186 162 108 99 83 91 93 91 93 98 100
162 134 135 122 80 116 142 110 57 26 50 -14 90 162 242 309 347 310 305 306 249 178 190 199 182 165 166 182 191 210 242 239 220 223 206 207 198 207 184 150 121 102 94 92 88 87 85 89 91
184 111 63 38 45 86 101 94 141 -24 59 63 39 139 198 272 297 340 283 270 247 234 206 235 202 158 167 217 233 252 281 275 269 241 218 202 229 227 188 155 146 131 109 99 89 79 78 75 69
154 96 48 18 46 42 47 68 59 38 64 54 35 115 193 168 300 272 200 244 281 265 237 249 229 222 238 280 292 302 286 287 283 255 215 219 238 226 185 180 172 139 122 130 126 124 109 110 113
139 104 147 82 76 47 86 84 51 -2 36 5 138 103 150 174 183 234 184 239 299 348 293 248 306 326 341 398 376 316 265 268 254 259 242 228 228 202 208 218 187 153 171 172 169 151 126 113 117
201 190 124 85 67 97 143 117 68 31 97 42 108 164 115 140 95 233 328 296 432 414 436 432 412 408 463 486 431 332 252 244 243 263 270 247 229 228 247 241 203 204 213 197 166 161 136 157 165
199 160 138 126 62 71 190 218 28 34 139 84 39 157 160 148 148 311 417 412 492 548 624 566 505 505 515 531 495 436 362 292 268 282 293 267 247 264 285 270 253 234 226 223 200 167 163 154 164
164 120 89 63 1 72 101 133 23 58 9 30 81 99 116 196 182 360 499 548 611 689 713 677 673 620 664 673 622 550 453 340 313 303 295 285 259 290 293 290 275 249 233 212 178 163 207 240 189
98 91 80 73 101 168 118 54 -45 -15 34 51 14 6 79 154 207 395 581 633 720 788 816 835 760 657 652 642 559 544 462 360 295 286 314 299 296 290 302 285 264 235 241 258 247 185 154 195 225
98 101 98 111 80 103 82 -6 -64 -56 29 64 82 74 96 226 300 438 627 722 737 799 882 874 734 594 567 549 571 586 561 499 413 350 320 318 293 306 302 272 245 249 233 226 213 192 171 150 192
131 128 136 160 155 63 17 -28 9 -7 49 123 132 138 149 75 259 562 698 769 795 843 853 840 651 579 508 471 461 452 491 432 296 296 290 309 296 299 296 260 253 248 214 208 214 195 172 143 153
106 75 81 102 138 103 85 82 61 52 43 85 94 97 112 69 273 497 672 790 872 974 940 710 632 505 380 350 399 420 361 360 398 384 348 328 319 303 286 274 259 242 227 230 238 238 219 163 139
134 140 138 150 141 80 143 160 64 114 133 161 255 230 214 167 222 476 755 892 951 913 837 646 499 396 287 270 297 298 347 392 417 369 361 306 293 308 307 284 255 246 226 216 208 186 179 166 165
83 163 184 222 231 190 106 112 174 189 176 157 202 180 178 335 567 722 791 897 850 780 652 507 335 234 186 204 220 275 365 329 317 340 332 293 276 280 256 245 215 208 195 201 195 195 185 168 178
121 209 302 269 290 227 220 232 299 280 254 307 273 264 256 269 297 402 538 604 526 445 301 186 151 157 156 207 185 239 301 305 296 314 285 256 265 254 250 252 222 210 191 185 178 159 143 144 143
150 168 222 231 251 276 292 354 304 259 267 304 320 317 282 196 139 118 115 142 155 142 83 104 103 149 208 234 250 281 299 342 356 380 319 270 239 230 244 232 226 213 189 174 162 133 150 124 142
223 161 346 372 299 303 355 310 344 306 273 218 258 229 86 -15 14 20 -15 -34 -10 72 87 108 193 270 314 316 331 377 429 421 399 372 332 296 267 257 235 217 207 221 210 171 176 148 125 154 163
299 380 522 373 383 382 409 421 243 237 212 192 111 32 60 71 16 -5 1 41 118 208 317 401 451 413 347 334 378 454 452 446 443 423 364 289 271 276 274 243 235 259 190 159 133 131 166 174 164
309 378 364 322 325 311 278 226 80 122 182 226 231 151 26 4 25 21 46 121 234 298 330 298 232 221 260 322 386 390 397 400 405 376 352 311 306 289 312 328 329 243 133 97 141 165 171 157 138